Overview Statistics Trail Chart Weather Telemetry Raw packets
 

This is the latest recevied weather packets stored in our database for station/object OE3MHU-12. If no packets are shown the sender has not sent any weather packets the latest 10 day(s).

<< 11 12 13 14 15 16 17 >>
Time Temp. Humidity Pressure Rain* Wind** Luminosity Snow
1787991197 23.33° C 63% 1015.6 hPa 0 mm - - -
1787989459 22.22° C 68% 1015.4 hPa 0 mm - - -
1787989397 22.22° C 68% 1015.4 hPa 0 mm - - -
1787987597 20° C 71% 1015.3 hPa 0 mm - - -
1787983997 15.56° C 86% 1015.1 hPa 0 mm - - -
1787982197 15° C 86% 1014.9 hPa 0 mm - - -
1787980398 15° C 86% 1015.1 hPa 0 mm - - -
1787978597 15° C 86% 1014.4 hPa 0 mm - - -
1787976797 15° C 87% 1014.7 hPa 0 mm - - -
1787974998 15.56° C 87% 1014.4 hPa 0 mm - - -
1787973198 15.56° C 88% 1014.6 hPa 0 mm - - -
1787971398 15.56° C 89% 1014.2 hPa 0 mm - - -
1787969599 15.56° C 89% 1013.5 hPa 0 mm - - -
1787967798 16.11° C 89% 1013 hPa 0 mm - - -
1787966086 16.67° C 90% 1013.6 hPa 0.25 mm - - -
1787965998 16.67° C 90% 1013.6 hPa 0.25 mm - - -
1787964198 16.67° C 89% 1014.1 hPa 0.25 mm - - -
1787962398 16.67° C 88% 1014 hPa 0 mm - - -
1787960599 16.67° C 88% 1013.5 hPa 0 mm - - -
1787958798 17.22° C 91% 1012.8 hPa 0.25 mm - - -
1787957030 17.78° C 91% 1012.2 hPa 1.78 mm - - -
1787956998 17.78° C 91% 1012.2 hPa 1.78 mm - - -
1787955230 18.33° C 91% 1011.8 hPa 4.57 mm - - -
1787955198 18.33° C 91% 1011.8 hPa 4.57 mm - - -
1787953399 18.33° C 91% 1012 hPa 3.3 mm - - -

* Rain latest hour (hover to see other rain measurements)
** Current wind speed in m/s (hover to see current wind gust speed)